TimePDT,TemperatureF,Dew PointF,Humidity,Sea Level PressureIn,VisibilityMPH,Wind Direction,Wind SpeedMPH,Gust SpeedMPH,PrecipitationIn,Events,Conditions,WindDirDegrees,DateUTC
12:15 AM,59.0,51.8,77,30.03,10.0,West,4.6,-,N/A,,Overcast,270,2013-07-30 07:15:00
12:35 AM,59.0,51.8,77,30.04,10.0,West,4.6,-,N/A,,Overcast,280,2013-07-30 07:35:00
12:55 AM,59.0,53.6,82,30.03,10.0,West,3.5,-,N/A,,Overcast,280,2013-07-30 07:55:00
1:15 AM,59.0,53.6,82,30.04,10.0,WNW,3.5,-,N/A,,Overcast,290,2013-07-30 08:15:00
1:35 AM,59.0,51.8,77,30.04,10.0,West,4.6,-,N/A,,Overcast,260,2013-07-30 08:35:00
1:55 AM,59.0,53.6,82,30.04,10.0,West,3.5,-,N/A,,Overcast,270,2013-07-30 08:55:00
2:15 AM,59.0,51.8,77,30.04,10.0,Calm,Calm,-,N/A,,Overcast,0,2013-07-30 09:15:00
2:35 AM,59.0,51.8,77,30.04,10.0,Calm,Calm,-,N/A,,Overcast,0,2013-07-30 09:35:00
2:55 AM,59.0,53.6,82,30.04,10.0,WSW,5.8,-,N/A,,Overcast,250,2013-07-30 09:55:00
3:15 AM,59.0,51.8,77,30.04,10.0,West,5.8,-,N/A,,Overcast,260,2013-07-30 10:15:00
3:35 AM,59.0,51.8,77,30.04,10.0,West,3.5,-,N/A,,Overcast,270,2013-07-30 10:35:00
3:55 AM,59.0,51.8,77,30.04,10.0,West,4.6,-,N/A,,Overcast,270,2013-07-30 10:55:00
4:15 AM,59.0,51.8,77,30.05,10.0,West,4.6,-,N/A,,Overcast,280,2013-07-30 11:15:00
4:35 AM,59.0,51.8,77,30.04,10.0,West,3.5,-,N/A,,Overcast,280,2013-07-30 11:35:00
4:55 AM,59.0,51.8,77,30.04,10.0,Calm,Calm,-,N/A,,Overcast,0,2013-07-30 11:55:00
5:15 AM,59.0,51.8,77,30.05,10.0,Calm,Calm,-,N/A,,Overcast,0,2013-07-30 12:15:00
5:35 AM,59.0,51.8,77,30.06,10.0,South,3.5,-,N/A,,Overcast,180,2013-07-30 12:35:00
5:55 AM,59.0,53.6,82,30.06,10.0,SSW,3.5,-,N/A,,Overcast,210,2013-07-30 12:55:00
6:15 AM,59.0,53.6,82,30.07,10.0,Calm,Calm,-,N/A,,Overcast,0,2013-07-30 13:15:00
6:35 AM,59.0,51.8,77,30.07,10.0,NW,3.5,-,N/A,,Overcast,320,2013-07-30 13:35:00
6:53 AM,59.0,51.8,77,30.08,8.0,WNW,3.5,-,N/A,,Overcast,300,2013-07-30 13:53:00
6:55 AM,59.0,51.8,77,30.08,10.0,NW,3.5,-,N/A,,Overcast,310,2013-07-30 13:55:00
7:55 AM,59.0,50.0,72,30.10,10.0,West,4.6,-,N/A,,Overcast,280,2013-07-30 14:55:00
8:49 AM,60.8,51.8,72,30.11,10.0,NNW,4.6,-,N/A,,Mostly Cloudy,330,2013-07-30 15:49:00
9:54 AM,62.6,51.8,68,30.11,10.0,Calm,Calm,-,N/A,,Scattered Clouds,0,2013-07-30 16:54:00
10:55 AM,64.4,53.6,68,30.11,10.0,NNE,3.5,-,N/A,,Scattered Clouds,20,2013-07-30 17:55:00
11:47 AM,66.2,55.4,68,30.11,10.0,NNE,8.1,-,N/A,,Partly Cloudy,20,2013-07-30 18:47:00
12:47 PM,66.2,57.2,73,30.09,10.0,NNE,11.5,-,N/A,,Partly Cloudy,20,2013-07-30 19:47:00
1:50 PM,68.0,55.4,64,30.08,10.0,North,10.4,-,N/A,,Partly Cloudy,360,2013-07-30 20:50:00
2:56 PM,69.8,55.4,60,30.07,10.0,NNW,11.5,-,N/A,,Partly Cloudy,340,2013-07-30 21:56:00
3:47 PM,71.6,55.4,57,30.06,6.0,WNW,11.5,-,N/A,,Haze,300,2013-07-30 22:47:00
4:47 PM,71.6,53.6,53,30.05,6.0,WNW,10.4,-,N/A,,Haze,300,2013-07-30 23:47:00
5:47 PM,69.8,53.6,56,30.04,6.0,NNW,8.1,-,N/A,,Haze,330,2013-07-31 00:47:00
6:55 PM,68.0,53.6,60,30.04,8.0,NNW,8.1,-,N/A,,Clear,330,2013-07-31 01:55:00
7:55 PM,64.4,51.8,64,30.04,8.0,NW,9.2,-,N/A,,Clear,310,2013-07-31 02:55:00
8:57 PM,62.6,51.8,68,30.06,10.0,WNW,4.6,-,N/A,,Partly Cloudy,290,2013-07-31 03:57:00
9:15 PM,62.6,53.6,72,30.07,10.0,West,4.6,-,N/A,,Clear,260,2013-07-31 04:15:00
9:35 PM,62.6,53.6,72,30.07,10.0,WSW,5.8,-,N/A,,Clear,250,2013-07-31 04:35:00
9:55 PM,62.6,53.6,72,30.08,10.0,WSW,3.5,-,N/A,,Clear,250,2013-07-31 04:55:00
10:15 PM,62.6,53.6,72,30.08,10.0,WSW,3.5,-,N/A,,Scattered Clouds,240,2013-07-31 05:15:00
10:35 PM,62.6,53.6,72,30.08,10.0,SE,5.8,-,N/A,,Scattered Clouds,140,2013-07-31 05:35:00
10:55 PM,62.6,53.6,72,30.08,10.0,South,3.5,-,N/A,,Partly Cloudy,180,2013-07-31 05:55:00
11:15 PM,62.6,53.6,72,30.09,10.0,SSW,4.6,-,N/A,,Clear,210,2013-07-31 06:15:00
11:55 PM,59.0,53.6,82,30.09,10.0,WNW,4.6,-,N/A,,Clear,300,2013-07-31 06:55:00